QPF
0.04 0.03 0.02 0.02 0.03 0.04 0.04 0.04 0.03 0.01 0.01 0.01 0.03 0.02 0.02 0.03 0.03 0.03 0.03 0.08 0.20 0.24 0.15 0.12 0.08 0.05 0.03 0.03 0.02 0.02 0.03 0.03 0.03 0.03 0.03 0.03 0.04 0.03 0.02 0.03 0.05 0.05 0.05
0.03 0.03 0.02 0.02 0.04 0.04 0.04 0.04 0.03 0.02 0.02 0.01 0.03 0.01 0.01 0.02 0.02 0.03 0.03 0.05 0.09 0.11 0.10 0.09 0.07 0.05 0.03 0.03 0.02 0.02 0.03 0.03 0.04 0.04 0.05 0.04 0.04 0.03 0.03 0.03 0.05 0.05 0.05
0.02 0.03 0.02 0.02 0.01 0.02 0.04 0.04 0.03 0.03 0.02 0.03 0.03 0.02 0.01 0.01 0.01 0.02 0.03 0.04 0.04 0.05 0.05 0.05 0.04 0.05 0.04 0.02 0.01 0.02 0.03 0.03 0.03 0.04 0.04 0.04 0.03 0.02 0.03 0.05 0.05 0.04 0.04
0.01 0.02 0.02 0.01 0.01 0.01 0.03 0.03 0.02 0.03 0.03 0.03 0.03 0.02 0.00 0.00 0.00 0.01 0.02 0.03 0.03 0.03 0.02 0.02 0.03 0.03 0.03 0.02 0.02 0.03 0.03 0.04 0.03 0.03 0.03 0.03 0.03 0.02 0.03 0.04 0.04 0.03 0.03
0.01 0.01 0.01 0.01 0.01 0.01 0.02 0.03 0.04 0.05 0.03 0.02 0.02 0.02 0.02 0.01 0.01 0.02 0.03 0.02 0.03 0.02 0.01 0.01 0.01 0.02 0.02 0.02 0.02 0.03 0.04 0.06 0.05 0.04 0.04 0.03 0.03 0.03 0.03 0.04 0.04 0.03 0.03
0.02 0.02 0.02 0.02 0.02 0.02 0.02 0.03 0.04 0.04 0.03 0.02 0.01 0.01 0.02 0.02 0.01 0.01 0.02 0.03 0.03 0.03 0.02 0.02 0.02 0.02 0.02 0.03 0.02 0.03 0.04 0.06 0.06 0.04 0.04 0.04 0.03 0.03 0.02 0.03 0.03 0.04 0.03
0.02 0.02 0.02 0.02 0.01 0.02 0.02 0.03 0.04 0.03 0.03 0.02 0.02 0.02 0.01 0.01 0.01 0.02 0.01 0.01 0.02 0.02 0.02 0.02 0.02 0.02 0.02 0.02 0.02 0.02 0.03 0.05 0.06 0.06 0.06 0.05 0.04 0.03 0.03 0.03 0.03 0.04 0.04
0.02 0.01 0.02 0.02 0.02 0.03 0.03 0.03 0.03 0.03 0.03 0.03 0.03 0.03 0.03 0.03 0.03 0.02 0.02 0.02 0.01 0.02 0.02 0.02 0.01 0.02 0.02 0.02 0.01 0.01 0.01 0.02 0.03 0.05 0.06 0.06 0.05 0.04 0.04 0.04 0.03 0.04 0.04
0.01 0.00 0.01 0.02 0.03 0.03 0.04 0.04 0.03 0.03 0.03 0.03 0.03 0.03 0.03 0.04 0.04 0.04 0.05 0.04 0.02 0.02 0.02 0.03 0.02 0.03 0.02 0.03 0.02 0.01 0.00 0.01 0.02 0.04 0.04 0.05 0.06 0.05 0.06 0.05 0.04 0.03 0.04
0.00 0.00 0.00 0.01 0.02 0.03 0.03 0.03 0.03 0.03 0.03 0.03 0.03 0.03 0.03 0.03 0.03 0.03 0.04 0.04 0.03 0.02 0.02 0.02 0.03 0.04 0.03 0.03 0.02 0.01 0.01 0.01 0.03 0.04 0.03 0.04 0.04 0.04 0.05 0.05 0.05 0.06 0.06
0.00 0.00 0.00 0.00 0.01 0.02 0.02 0.02 0.02 0.03 0.02 0.02 0.03 0.03 0.03 0.02 0.03 0.03 0.02 0.03 0.04 0.03 0.02 0.02 0.02 0.03 0.03 0.03 0.03 0.02 0.01 0.01 0.02 0.04 0.03 0.03 0.04 0.04 0.04 0.04 0.05 0.05 0.05
0.01 0.00 0.00 0.00 0.00 0.00 0.00 0.00 0.01 0.02 0.03 0.02 0.02 0.02 0.03 0.03 0.03 0.03 0.02 0.03 0.04 0.04 0.03 0.02 0.02 0.03 0.03 0.04 0.04 0.03 0.02 0.01 0.01 0.03 0.04 0.04 0.04 0.04 0.04 0.04 0.05 0.04 0.04
0.01 0.01 0.01 0.00 0.00 0.00 0.00 0.00 0.00 0.01 0.02 0.02 0.03 0.03 0.02 0.03 0.04 0.04 0.03 0.02 0.03 0.03 0.02 0.02 0.02 0.04 0.04 0.04 0.05 0.03 0.02 0.02 0.02 0.02 0.03 0.03 0.03 0.03 0.04 0.05 0.06 0.05 0.05
0.01 0.01 0.01 0.01 0.01 0.01 0.01 0.01 0.01 0.01 0.01 0.02 0.02 0.03 0.03 0.02 0.02 0.03 0.04 0.03 0.03 0.03 0.02 0.02 0.03 0.04 0.04 0.05 0.04 0.02 0.02 0.02 0.02 0.02 0.03 0.03 0.03 0.03 0.03 0.05 0.06 0.07 0.07
0.02 0.02 0.02 0.01 0.01 0.01 0.01 0.01 0.01 0.01 0.01 0.01 0.02 0.02 0.02 0.02 0.02 0.03 0.04 0.04 0.04 0.03 0.03 0.02 0.02 0.03 0.03 0.06 0.05 0.03 0.03 0.02 0.02 0.02 0.03 0.04 0.03 0.03 0.03 0.04 0.05 0.05 0.05
0.02 0.02 0.02 0.02 0.01 0.01 0.01 0.01 0.01 0.01 0.01 0.01 0.01 0.02 0.02 0.01 0.01 0.02 0.03 0.05 0.05 0.04 0.03 0.02 0.02 0.02 0.03 0.05 0.04 0.03 0.02 0.02 0.02 0.02 0.02 0.02 0.02 0.03 0.03 0.03 0.04 0.04 0.03
0.03 0.02 0.02 0.02 0.02 0.02 0.02 0.02 0.01 0.01 0.00 0.00 0.00 0.01 0.01 0.01 0.01 0.02 0.03 0.04 0.04 0.04 0.03 0.02 0.01 0.01 0.02 0.03 0.02 0.02 0.03 0.03 0.03 0.03 0.03 0.02 0.02 0.02 0.03 0.03 0.02 0.02 0.02
0.03 0.02 0.02 0.02 0.02 0.02 0.02 0.02 0.01 0.01 0.01 0.01 0.01 0.01 0.00 0.00 0.01 0.01 0.02 0.03 0.04 0.04 0.04 0.02 0.01 0.01 0.01 0.02 0.02 0.02 0.03 0.03 0.04 0.04 0.04 0.02 0.02 0.02 0.03 0.03 0.02 0.02 0.02
0.03 0.01 0.01 0.02 0.02 0.02 0.03 0.03 0.02 0.01 0.02 0.02 0.01 0.01 0.01 0.01 0.01 0.01 0.01 0.02 0.03 0.03 0.05 0.03 0.01 0.01 0.01 0.02 0.02 0.02 0.02 0.03 0.04 0.04 0.03 0.03 0.02 0.02 0.03 0.03 0.02 0.02 0.02
0.03 0.01 0.01 0.01 0.01 0.02 0.02 0.03 0.03 0.02 0.02 0.02 0.01 0.01 0.01 0.01 0.01 0.01 0.01 0.02 0.03 0.03 0.04 0.04 0.02 0.02 0.02 0.01 0.01 0.02 0.03 0.03 0.03 0.03 0.03 0.02 0.02 0.02 0.02 0.03 0.02 0.02 0.03
0.05 0.02 0.02 0.02 0.02 0.01 0.02 0.02 0.02 0.02 0.02 0.02 0.01 0.01 0.00 0.01 0.01 0.01 0.01 0.02 0.02 0.03 0.04 0.05 0.04 0.03 0.02 0.02 0.01 0.02 0.02 0.02 0.02 0.02 0.03 0.03 0.02 0.02 0.02 0.02 0.02 0.02 0.02
0.05 0.03 0.02 0.02 0.02 0.02 0.02 0.02 0.02 0.01 0.01 0.02 0.02 0.01 0.01 0.01 0.01 0.01 0.01 0.02 0.01 0.02 0.03 0.04 0.04 0.03 0.02 0.02 0.02 0.02 0.02 0.03 0.02 0.02 0.03 0.04 0.04 0.04 0.04 0.04 0.03 0.02 0.01
0.05 0.04 0.03 0.03 0.02 0.02 0.02 0.02 0.01 0.01 0.01 0.01 0.01 0.01 0.01 0.02 0.02 0.01 0.01 0.01 0.01 0.01 0.02 0.03 0.04 0.04 0.03 0.03 0.03 0.03 0.02 0.02 0.03 0.02 0.03 0.04 0.05 0.06 0.05 0.05 0.04 0.04 0.03
0.05 0.04 0.04 0.04 0.03 0.02 0.02 0.02 0.01 0.00 0.01 0.02 0.02 0.01 0.01 0.01 0.01 0.01 0.01 0.01 0.00 0.00 0.01 0.03 0.03 0.04 0.05 0.04 0.04 0.03 0.03 0.03 0.02 0.02 0.03 0.04 0.05 0.05 0.06 0.06 0.04 0.04 0.05
0.05 0.03 0.03 0.03 0.03 0.02 0.02 0.01 0.01 0.00 0.01 0.01 0.01 0.01 0.01 0.01 0.01 0.01 0.01 0.01 0.01 0.01 0.01 0.02 0.03 0.04 0.05 0.05 0.04 0.04 0.03 0.02 0.02 0.02 0.03 0.05 0.06 0.07 0.06 0.05 0.03 0.04 0.05
0.04 0.02 0.02 0.04 0.04 0.03 0.02 0.02 0.01 0.01 0.01 0.01 0.01 0.01 0.01 0.02 0.02 0.02 0.01 0.01 0.01 0.01 0.01 0.01 0.02 0.03 0.04 0.04 0.04 0.03 0.03 0.02 0.02 0.02 0.02 0.04 0.07 0.11 0.08 0.03 0.02 0.02 0.02
MSLP
1012.15 1012.67 1013.12 1013.53 1013.90 1014.25 1014.60 1014.96 1015.32 1015.67 1016.00 1016.30 1016.56 1016.78 1016.99 1017.20 1017.41 1017.64 1017.89 1018.14 1018.39 1018.62 1018.83 1019.01 1019.18 1019.34 1019.51 1019.69 1019.87 1020.04 1020.17 1020.25 1020.27 1020.22 1020.14 1020.02 1019.92 1019.83 1019.76 1019.72 1019.67 1019.60 1019.49
1011.90 1012.44 1012.92 1013.35 1013.75 1014.14 1014.53 1014.95 1015.38 1015.81 1016.23 1016.62 1016.96 1017.26 1017.52 1017.75 1017.98 1018.20 1018.42 1018.65 1018.88 1019.10 1019.31 1019.51 1019.71 1019.91 1020.10 1020.29 1020.47 1020.61 1020.71 1020.76 1020.75 1020.69 1020.60 1020.50 1020.41 1020.34 1020.29 1020.25 1020.19 1020.10 1019.97
1011.59 1012.15 1012.67 1013.13 1013.58 1014.01 1014.47 1014.95 1015.45 1015.96 1016.46 1016.94 1017.36 1017.74 1018.06 1018.33 1018.56 1018.77 1018.96 1019.15 1019.34 1019.54 1019.73 1019.94 1020.15 1020.37 1020.58 1020.79 1020.96 1021.10 1021.19 1021.22 1021.20 1021.14 1021.06 1020.98 1020.91 1020.86 1020.83 1020.79 1020.73 1020.62 1020.46
1011.26 1011.86 1012.41 1012.93 1013.43 1013.92 1014.43 1014.97 1015.53 1016.12 1016.69 1017.24 1017.75 1018.20 1018.58 1018.89 1019.14 1019.34 1019.50 1019.65 1019.79 1019.93 1020.10 1020.28 1020.49 1020.71 1020.94 1021.16 1021.35 1021.50 1021.59 1021.62 1021.60 1021.55 1021.48 1021.42 1021.38 1021.36 1021.34 1021.30 1021.24 1021.12 1020.94
1010.95 1011.58 1012.19 1012.76 1013.32 1013.87 1014.43 1015.02 1015.63 1016.26 1016.89 1017.50 1018.08 1018.60 1019.04 1019.40 1019.68 1019.88 1020.02 1020.13 1020.21 1020.30 1020.42 1020.56 1020.75 1020.97 1021.20 1021.43 1021.64 1021.80 1021.91 1021.96 1021.95 1021.92 1021.87 1021.83 1021.80 1021.79 1021.79 1021.76 1021.69 1021.56 1021.38
1010.66 1011.32 1011.98 1012.62 1013.23 1013.83 1014.44 1015.05 1015.68 1016.34 1017.00 1017.67 1018.30 1018.89 1019.40 1019.83 1020.15 1020.37 1020.51 1020.59 1020.63 1020.66 1020.71 1020.81 1020.96 1021.16 1021.39 1021.63 1021.86 1022.05 1022.17 1022.24 1022.26 1022.24 1022.20 1022.17 1022.16 1022.16 1022.16 1022.14 1022.07 1021.94 1021.75
1010.36 1011.06 1011.76 1012.45 1013.12 1013.77 1014.40 1015.02 1015.66 1016.32 1017.00 1017.69 1018.37 1019.03 1019.61 1020.12 1020.51 1020.78 1020.94 1021.01 1021.02 1021.00 1021.01 1021.05 1021.16 1021.33 1021.56 1021.81 1022.05 1022.26 1022.41 1022.50 1022.53 1022.52 1022.50 1022.47 1022.46 1022.46 1022.46 1022.44 1022.38 1022.25 1022.06
1010.03 1010.74 1011.49 1012.23 1012.95 1013.63 1014.27 1014.90 1015.52 1016.16 1016.84 1017.54 1018.27 1018.98 1019.65 1020.24 1020.71 1021.06 1021.27 1021.36 1021.36 1021.33 1021.29 1021.29 1021.37 1021.51 1021.73 1021.98 1022.24 1022.47 1022.65 1022.76 1022.80 1022.79 1022.77 1022.73 1022.71 1022.71 1022.71 1022.69 1022.64 1022.53 1022.35
1009.63 1010.35 1011.13 1011.92 1012.67 1013.38 1014.04 1014.65 1015.26 1015.87 1016.53 1017.24 1017.98 1018.75 1019.49 1020.17 1020.75 1021.18 1021.46 1021.60 1021.63 1021.59 1021.54 1021.52 1021.57 1021.70 1021.91 1022.17 1022.45 1022.70 1022.90 1023.02 1023.07 1023.07 1023.03 1022.99 1022.95 1022.94 1022.94 1022.93 1022.89 1022.79 1022.64
1009.15 1009.86 1010.66 1011.48 1012.28 1013.02 1013.69 1014.30 1014.89 1015.48 1016.11 1016.81 1017.57 1018.37 1019.17 1019.93 1020.60 1021.12 1021.49 1021.69 1021.77 1021.76 1021.72 1021.70 1021.75 1021.88 1022.10 1022.37 1022.66 1022.94 1023.15 1023.30 1023.35 1023.35 1023.30 1023.25 1023.20 1023.18 1023.18 1023.18 1023.15 1023.08 1022.95
1008.57 1009.27 1010.08 1010.93 1011.77 1012.55 1013.26 1013.88 1014.47 1015.04 1015.65 1016.33 1017.08 1017.89 1018.73 1019.55 1020.29 1020.89 1021.33 1021.61 1021.75 1021.79 1021.79 1021.80 1021.86 1022.01 1022.24 1022.54 1022.86 1023.15 1023.40 1023.56 1023.63 1023.63 1023.58 1023.51 1023.46 1023.44 1023.44 1023.45 1023.45 1023.40 1023.29
1007.90 1008.58 1009.40 1010.29 1011.19 1012.03 1012.78 1013.44 1014.04 1014.61 1015.21 1015.86 1016.59 1017.39 1018.23 1019.07 1019.84 1020.50 1021.01 1021.35 1021.56 1021.66 1021.71 1021.76 1021.87 1022.05 1022.32 1022.64 1022.99 1023.32 1023.59 1023.78 1023.87 1023.88 1023.84 1023.78 1023.73 1023.71 1023.73 1023.75 1023.77 1023.74 1023.65
1007.15 1007.80 1008.64 1009.57 1010.53 1011.45 1012.28 1013.00 1013.65 1014.24 1014.83 1015.46 1016.16 1016.92 1017.73 1018.55 1019.32 1019.99 1020.54 1020.93 1021.20 1021.36 1021.48 1021.59 1021.75 1021.99 1022.30 1022.66 1023.04 1023.41 1023.71 1023.93 1024.05 1024.08 1024.07 1024.03 1023.99 1023.99 1024.02 1024.06 1024.09 1024.08 1024.00
1006.32 1006.94 1007.79 1008.78 1009.81 1010.82 1011.76 1012.58 1013.30 1013.94 1014.54 1015.16 1015.81 1016.52 1017.27 1018.03 1018.77 1019.43 1019.98 1020.41 1020.72 1020.95 1021.13 1021.31 1021.54 1021.83 1022.19 1022.59 1023.01 1023.41 1023.75 1024.00 1024.15 1024.22 1024.24 1024.23 1024.22 1024.24 1024.29 1024.35 1024.39 1024.39 1024.32
1005.41 1006.01 1006.87 1007.90 1009.02 1010.15 1011.20 1012.14 1012.96 1013.67 1014.31 1014.93 1015.55 1016.20 1016.87 1017.56 1018.23 1018.85 1019.39 1019.84 1020.19 1020.47 1020.73 1020.98 1021.27 1021.62 1022.02 1022.46 1022.91 1023.34 1023.70 1023.98 1024.17 1024.28 1024.34 1024.37 1024.40 1024.45 1024.52 1024.59 1024.65 1024.66 1024.59
1004.43 1004.99 1005.86 1006.94 1008.15 1009.38 1010.57 1011.64 1012.58 1013.39 1014.09 1014.73 1015.33 1015.93 1016.53 1017.15 1017.75 1018.32 1018.84 1019.29 1019.68 1020.02 1020.33 1020.65 1021.00 1021.40 1021.85 1022.32 1022.79 1023.22 1023.61 1023.91 1024.12 1024.27 1024.36 1024.44 1024.50 1024.59 1024.69 1024.78 1024.85 1024.87 1024.81
1003.39 1003.92 1004.79 1005.90 1007.18 1008.52 1009.83 1011.04 1012.11 1013.03 1013.81 1014.49 1015.10 1015.67 1016.23 1016.78 1017.33 1017.86 1018.36 1018.82 1019.24 1019.63 1020.01 1020.39 1020.80 1021.24 1021.71 1022.19 1022.66 1023.10 1023.48 1023.79 1024.02 1024.19 1024.32 1024.43 1024.54 1024.66 1024.78 1024.90 1024.99 1025.02 1024.97
1002.33 1002.82 1003.68 1004.82 1006.16 1007.58 1008.99 1010.33 1011.52 1012.55 1013.42 1014.16 1014.80 1015.38 1015.92 1016.44 1016.96 1017.47 1017.97 1018.45 1018.91 1019.35 1019.79 1020.23 1020.68 1021.15 1021.63 1022.11 1022.57 1022.98 1023.35 1023.65 1023.88 1024.07 1024.22 1024.35 1024.49 1024.64 1024.80 1024.94 1025.06 1025.11 1025.09
1001.30 1001.77 1002.61 1003.76 1005.12 1006.60 1008.09 1009.52 1010.81 1011.95 1012.91 1013.72 1014.41 1015.02 1015.57 1016.10 1016.62 1017.14 1017.65 1018.17 1018.67 1019.17 1019.66 1020.14 1020.63 1021.12 1021.60 1022.06 1022.49 1022.88 1023.21 1023.49 1023.71 1023.89 1024.06 1024.21 1024.38 1024.55 1024.74 1024.91 1025.06 1025.14 1025.16
1000.37 1000.83 1001.66 1002.79 1004.16 1005.65 1007.18 1008.67 1010.04 1011.25 1012.29 1013.18 1013.93 1014.58 1015.18 1015.74 1016.28 1016.83 1017.38 1017.93 1018.48 1019.03 1019.57 1020.10 1020.61 1021.10 1021.57 1022.01 1022.40 1022.75 1023.05 1023.29 1023.50 1023.68 1023.84 1024.01 1024.19 1024.39 1024.60 1024.80 1024.98 1025.11 1025.17
999.60 1000.06 1000.88 1002.00 1003.35 1004.83 1006.36 1007.86 1009.26 1010.52 1011.62 1012.57 1013.38 1014.09 1014.73 1015.34 1015.93 1016.52 1017.11 1017.71 1018.31 1018.89 1019.47 1020.02 1020.55 1021.04 1021.50 1021.91 1022.27 1022.58 1022.84 1023.06 1023.25 1023.41 1023.57 1023.75 1023.94 1024.16 1024.39 1024.62 1024.84 1025.01 1025.12
999.00 999.49 1000.32 1001.43 1002.75 1004.20 1005.70 1007.18 1008.57 1009.84 1010.97 1011.95 1012.81 1013.57 1014.27 1014.92 1015.56 1016.19 1016.83 1017.46 1018.09 1018.71 1019.31 1019.88 1020.41 1020.89 1021.33 1021.72 1022.05 1022.34 1022.57 1022.77 1022.95 1023.10 1023.27 1023.44 1023.65 1023.87 1024.12 1024.37 1024.62 1024.83 1025.00
998.57 999.13 999.99 1001.09 1002.38 1003.78 1005.23 1006.66 1008.01 1009.26 1010.38 1011.38 1012.27 1013.07 1013.81 1014.51 1015.19 1015.86 1016.53 1017.19 1017.84 1018.47 1019.07 1019.64 1020.16 1020.63 1021.06 1021.43 1021.75 1022.02 1022.25 1022.44 1022.61 1022.77 1022.94 1023.12 1023.33 1023.56 1023.81 1024.08 1024.35 1024.59 1024.80
998.26 998.91 999.82 1000.94 1002.21 1003.56 1004.95 1006.31 1007.61 1008.81 1009.91 1010.90 1011.80 1012.63 1013.40 1014.13 1014.84 1015.54 1016.23 1016.90 1017.55 1018.17 1018.77 1019.32 1019.82 1020.28 1020.69 1021.06 1021.37 1021.65 1021.88 1022.09 1022.28 1022.45 1022.63 1022.82 1023.03 1023.26 1023.51 1023.78 1024.05 1024.31 1024.54
998.00 998.77 999.75 1000.90 1002.16 1003.48 1004.80 1006.10 1007.33 1008.48 1009.55 1010.52 1011.42 1012.26 1013.06 1013.82 1014.55 1015.26 1015.96 1016.63 1017.27 1017.87 1018.44 1018.97 1019.46 1019.90 1020.30 1020.66 1020.98 1021.27 1021.53 1021.77 1021.98 1022.18 1022.38 1022.58 1022.79 1023.02 1023.26 1023.51 1023.77 1024.03 1024.26
997.73 998.61 999.68 1000.87 1002.13 1003.43 1004.71 1005.95 1007.12 1008.23 1009.26 1010.22 1011.12 1011.97 1012.78 1013.57 1014.32 1015.05 1015.75 1016.41 1017.03 1017.62 1018.16 1018.66 1019.12 1019.55 1019.94 1020.30 1020.64 1020.95 1021.24 1021.51 1021.76 1021.99 1022.21 1022.43 1022.64 1022.86 1023.08 1023.31 1023.54 1023.78 1024.00
Thickness
5732 5732 5731 5730 5729 5729 5728 5727 5727 5727 5727 5726 5725 5724 5723 5722 5720 5718 5717 5717 5717 5717 5717 5717 5716 5716 5716 5716 5716 5717 5717 5717 5717 5717 5718 5718 5718 5719 5719 5719 5719 5720 5720
5730 5728 5727 5726 5726 5725 5724 5723 5722 5721 5721 5720 5719 5719 5718 5717 5716 5714 5712 5712 5712 5712 5712 5712 5712 5712 5712 5712 5712 5713 5713 5713 5713 5713 5713 5714 5714 5714 5714 5715 5715 5715 5716
5727 5725 5724 5723 5722 5722 5721 5720 5718 5717 5716 5715 5713 5712 5712 5711 5710 5709 5708 5707 5707 5706 5707 5706 5706 5707 5707 5708 5708 5709 5709 5709 5709 5709 5709 5709 5709 5709 5710 5710 5710 5710 5711
5724 5722 5720 5719 5719 5718 5716 5715 5713 5711 5709 5707 5706 5706 5706 5705 5705 5705 5704 5703 5702 5701 5701 5701 5701 5701 5702 5703 5703 5704 5704 5704 5704 5704 5704 5705 5705 5705 5705 5705 5705 5705 5706
5721 5719 5717 5716 5715 5713 5711 5710 5708 5706 5703 5702 5701 5701 5701 5700 5699 5700 5699 5699 5698 5696 5696 5695 5695 5695 5696 5696 5697 5698 5699 5700 5700 5699 5700 5700 5700 5700 5700 5700 5700 5700 5701
5717 5715 5714 5712 5711 5708 5706 5705 5702 5701 5700 5698 5698 5696 5695 5695 5694 5694 5694 5694 5693 5692 5691 5691 5690 5689 5689 5690 5691 5692 5693 5694 5694 5694 5694 5695 5695 5694 5694 5694 5695 5695 5695
5713 5712 5710 5708 5706 5703 5701 5700 5698 5696 5694 5694 5690 5687 5688 5690 5688 5688 5688 5688 5687 5687 5686 5686 5685 5685 5684 5684 5685 5686 5687 5688 5688 5688 5689 5689 5689 5689 5689 5689 5689 5690 5690
5709 5708 5706 5704 5702 5699 5697 5695 5694 5690 5689 5690 5685 5680 5676 5676 5679 5682 5682 5681 5681 5681 5681 5681 5681 5680 5680 5679 5679 5680 5680 5682 5682 5683 5683 5683 5683 5683 5683 5683 5683 5684 5684
5705 5703 5702 5700 5698 5696 5693 5691 5690 5686 5683 5684 5684 5678 5671 5666 5669 5673 5675 5676 5676 5675 5675 5676 5676 5676 5675 5675 5674 5675 5675 5675 5676 5677 5677 5677 5677 5677 5677 5677 5677 5678 5678
5700 5699 5698 5697 5695 5693 5690 5689 5687 5684 5681 5678 5678 5678 5675 5672 5665 5662 5666 5669 5670 5670 5670 5671 5671 5670 5670 5669 5669 5670 5669 5669 5670 5671 5671 5671 5671 5671 5671 5671 5671 5672 5672
5697 5696 5694 5693 5691 5689 5687 5685 5683 5681 5679 5676 5673 5672 5671 5669 5668 5660 5656 5659 5661 5663 5665 5665 5665 5665 5665 5664 5664 5664 5664 5664 5664 5664 5665 5665 5665 5665 5665 5665 5666 5666 5667
5692 5692 5691 5689 5688 5686 5683 5682 5680 5678 5676 5674 5672 5669 5666 5663 5661 5659 5654 5653 5653 5656 5659 5660 5660 5660 5660 5659 5658 5658 5658 5658 5658 5658 5658 5658 5658 5659 5659 5660 5660 5661 5661
5687 5687 5687 5685 5683 5681 5680 5679 5676 5674 5673 5671 5669 5667 5665 5663 5661 5658 5653 5650 5649 5650 5652 5654 5655 5655 5655 5654 5653 5652 5652 5652 5652 5652 5651 5651 5652 5652 5653 5654 5655 5656 5656
5685 5684 5683 5681 5680 5678 5676 5674 5672 5671 5670 5668 5666 5664 5662 5660 5659 5656 5651 5647 5642 5643 5644 5646 5649 5650 5649 5648 5647 5646 5645 5645 5645 5645 5645 5645 5645 5646 5647 5648 5649 5650 5650
5682 5681 5679 5677 5676 5674 5672 5670 5667 5666 5665 5663 5662 5660 5658 5656 5655 5653 5650 5647 5641 5636 5636 5640 5642 5644 5644 5643 5642 5641 5640 5640 5639 5639 5639 5640 5640 5640 5641 5642 5643 5643 5644
5678 5676 5674 5673 5671 5670 5668 5666 5663 5661 5659 5657 5656 5655 5653 5652 5650 5649 5647 5644 5642 5637 5633 5636 5638 5639 5639 5638 5637 5636 5635 5634 5634 5634 5634 5634 5634 5635 5635 5636 5637 5637 5637
5674 5672 5670 5668 5667 5665 5663 5661 5658 5656 5654 5652 5651 5650 5648 5647 5645 5643 5642 5640 5638 5635 5631 5632 5634 5635 5634 5632 5631 5630 5630 5629 5629 5628 5628 5628 5629 5629 5630 5630 5630 5631 5631
5669 5668 5666 5664 5663 5661 5659 5657 5654 5652 5649 5647 5646 5644 5643 5642 5639 5638 5636 5634 5633 5632 5628 5625 5626 5627 5627 5627 5626 5625 5625 5624 5624 5623 5623 5623 5623 5623 5624 5624 5624 5624 5625
5663 5663 5661 5659 5657 5656 5654 5652 5650 5647 5645 5643 5641 5640 5638 5636 5633 5632 5630 5629 5628 5628 5625 5621 5620 5621 5621 5621 5620 5620 5620 5619 5619 5619 5618 5618 5617 5617 5618 5618 5618 5619 5619
5657 5656 5655 5654 5653 5651 5649 5647 5645 5642 5640 5638 5637 5636 5634 5632 5629 5627 5625 5623 5622 5620 5619 5616 5614 5614 5614 5615 5614 5613 5612 5613 5613 5614 5614 5613 5613 5613 5613 5613 5613 5614 5614
5651 5649 5648 5648 5647 5645 5644 5641 5639 5637 5634 5632 5631 5631 5629 5628 5626 5624 5622 5619 5617 5615 5613 5610 5609 5608 5607 5607 5607 5608 5606 5606 5608 5609 5608 5608 5608 5608 5608 5609 5609 5609 5609
5644 5643 5641 5641 5640 5639 5638 5636 5633 5631 5629 5627 5625 5625 5624 5622 5621 5619 5617 5616 5614 5611 5608 5606 5604 5602 5602 5603 5603 5603 5601 5599 5599 5603 5602 5602 5603 5603 5603 5604 5604 5605 5604
5637 5636 5635 5634 5632 5631 5631 5629 5627 5625 5623 5622 5621 5619 5619 5618 5615 5613 5611 5610 5608 5607 5605 5603 5600 5598 5598 5598 5597 5597 5596 5595 5594 5597 5596 5595 5597 5598 5599 5600 5600 5600 5600
5630 5630 5629 5628 5626 5625 5624 5623 5621 5619 5618 5617 5616 5615 5613 5611 5610 5607 5605 5603 5601 5601 5600 5599 5598 5596 5595 5594 5593 5592 5592 5592 5591 5592 5592 5589 5591 5592 5595 5596 5596 5596 5595
5625 5624 5623 5621 5620 5618 5617 5617 5615 5613 5612 5612 5611 5610 5608 5605 5605 5603 5599 5596 5595 5594 5594 5593 5593 5592 5591 5589 5588 5585 5584 5583 5583 5584 5585 5583 5584 5586 5588 5590 5590 5590 5590
5619 5619 5617 5616 5614 5612 5611 5610 5608 5607 5605 5605 5605 5603 5602 5599 5598 5596 5593 5591 5588 5587 5587 5587 5586 5585 5584 5583 5582 5580 5578 5577 5576 5576 5578 5577 5577 5577 5578 5582 5583 5583 5582